contact:dominique.lefevre@mio.osupytheas.fr, maurice.libes@osupytheas.fr, didier.mallarino@osupytheas.fr
Project:EMSO http://www.emso-fr.org/EMSO-France
Depth: 2436.0 m
Title:EMSO Ligure Ouest : Data MII capteur AQUADOPP
Date,Latitude,Longitude,X_East,Y_North,Z_Up,Amplitude_X,Amplitude_Y,Amplitude_Z,Batterie,SoundSpeed,Heading,Pitch,Roll,Pressure,TIS,Speed,Direction
, degrees North, degrees East, m.s-1, m.s-1,m.s-1, 1, 1, 1, Volt, m.s-1, degree, degree, degree, dbar, degree_C, m.s-1, degree
2020-04-28T00:04:03,42.805,6.029,0.002,0.01,-0.003,106.0,108.0,103.0,13.4,1505.3,326.9,-0.7,1.8,2470.436,13.31,0.01,11.3
2020-04-28T00:07:03,42.805,6.029,-0.002,-0.017,-0.002,105.0,107.0,102.0,13.4,1505.3,327.6,-0.7,1.8,2470.475,13.32,0.017,186.7
2020-04-28T00:10:03,42.805,6.029,0.003,-0.008,-0.016,106.0,108.0,103.0,13.4,1505.3,327.7,-0.7,1.8,2470.445,13.32,0.008,159.4
2020-04-28T00:13:03,42.805,6.029,0.002,-0.018,-0.009,107.0,107.0,104.0,13.4,1505.3,323.8,-0.7,1.8,2470.408,13.33,0.018,173.7
2020-04-28T00:16:03,42.805,6.029,-0.005,0.009,-0.01,105.0,109.0,103.0,13.4,1505.3,328.5,-0.7,1.8,2470.438,13.33,0.01,330.9
2020-04-28T00:19:03,42.805,6.029,0.022,-0.009,0.003,106.0,108.0,103.0,13.4,1505.3,326.1,-0.7,1.9,2470.4,13.33,0.023,112.2
2020-04-28T00:22:03,42.805,6.029,-0.003,-0.003,0.03,106.0,107.0,104.0,13.4,1505.3,328.5,-0.7,1.8,2470.403,13.33,0.004,225.0
2020-04-28T00:25:03,42.805,6.029,-0.003,0.0,-0.011,107.0,108.0,106.0,13.4,1505.3,328.1,-0.7,1.8,2470.435,13.33,0.003,270.0
2020-04-28T00:28:03,42.805,6.029,0.0,-0.012,-0.013,106.0,109.0,103.0,13.3,1505.3,326.9,-0.7,1.8,2470.427,13.33,0.012,180.0
2020-04-28T00:31:03,42.805,6.029,0.018,0.0,-0.019,107.0,110.0,104.0,13.4,1505.3,324.8,-0.7,1.9,2470.438,13.33,0.018,90.0
2020-04-28T00:34:03,42.805,6.029,0.01,0.004,-0.014,108.0,112.0,103.0,13.4,1505.3,327.8,-0.7,1.9,2470.397,13.33,0.01,68.2
2020-04-28T00:37:03,42.805,6.029,0.013,0.01,-0.036,108.0,108.0,105.0,13.4,1505.4,325.8,-0.7,1.8,2470.428,13.34,0.016,52.4
2020-04-28T00:40:03,42.805,6.029,0.002,0.0,-0.014,107.0,107.0,104.0,13.4,1505.4,327.6,-0.7,1.8,2470.421,13.34,0.002,90.0
2020-04-28T00:43:03,42.805,6.029,0.002,-0.004,0.0,107.0,109.0,103.0,13.4,1505.3,325.3,-0.7,1.8,2470.423,13.33,0.004,153.4
2020-04-28T00:46:03,42.805,6.029,-0.02,-0.013,-0.032,105.0,108.0,103.0,13.4,1505.3,326.5,-0.7,1.8,2470.403,13.33,0.023,237.0
2020-04-28T00:49:03,42.805,6.029,-0.007,0.002,-0.005,106.0,109.0,102.0,13.4,1505.3,328.2,-0.7,1.8,2470.419,13.33,0.007,285.9
2020-04-28T00:52:03,42.805,6.029,0.0,0.0,-0.006,108.0,107.0,103.0,13.4,1505.3,325.0,-0.7,1.8,2470.365,13.33,0.0,0.0
2020-04-28T00:55:03,42.805,6.029,0.019,-0.002,-0.005,110.0,108.0,103.0,13.3,1505.3,325.9,-0.7,1.8,2470.418,13.33,0.019,96.0
2020-04-28T00:58:03,42.805,6.029,0.003,-0.011,-0.004,109.0,109.0,104.0,13.4,1505.3,323.9,-0.7,1.8,2470.406,13.33,0.011,164.7
2020-04-28T01:04:03,42.805,6.029,0.004,-0.006,-0.019,108.0,113.0,103.0,13.4,1505.3,327.8,-0.7,1.8,2470.412,13.31,0.007,146.3
2020-04-28T01:07:03,42.805,6.029,-0.008,-0.006,-0.006,107.0,110.0,104.0,13.4,1505.3,323.3,-0.7,1.9,2470.401,13.32,0.01,233.1
2020-04-28T01:10:03,42.805,6.029,-0.036,-0.013,-0.044,107.0,111.0,104.0,13.4,1505.3,327.1,-0.7,1.8,2470.41,13.32,0.038,250.1
2020-04-28T01:13:03,42.805,6.029,-0.002,-0.008,-0.019,105.0,110.0,102.0,13.4,1505.3,325.0,-0.7,1.9,2470.409,13.32,0.008,194.0
2020-04-28T01:16:03,42.805,6.029,0.008,0.0,0.005,104.0,109.0,104.0,13.4,1505.3,328.1,-0.7,1.9,2470.426,13.33,0.008,90.0
2020-04-28T01:19:03,42.805,6.029,0.02,-0.022,0.0,105.0,110.0,104.0,13.4,1505.3,327.3,-0.7,1.8,2470.413,13.33,0.029,137.7
2020-04-28T01:22:03,42.805,6.029,0.021,-0.005,-0.014,107.0,111.0,103.0,13.4,1505.3,326.1,-0.7,1.8,2470.423,13.33,0.021,103.4
2020-04-28T01:25:03,42.805,6.029,0.013,-0.002,0.013,106.0,109.0,103.0,13.4,1505.3,325.4,-0.7,1.8,2470.378,13.33,0.013,98.7
2020-04-28T01:28:03,42.805,6.029,0.001,-0.026,-0.004,106.0,110.0,104.0,13.4,1505.3,327.8,-0.7,1.8,2470.375,13.33,0.026,177.8
2020-04-28T01:31:03,42.805,6.029,-0.004,0.0,-0.011,106.0,108.0,103.0,13.3,1505.3,324.5,-0.7,1.8,2470.389,13.33,0.004,270.0
2020-04-28T01:34:03,42.805,6.029,-0.006,-0.006,-0.018,106.0,109.0,103.0,13.4,1505.3,325.1,-0.7,1.8,2470.44,13.33,0.008,225.0
2020-04-28T01:37:03,42.805,6.029,-0.007,-0.01,-0.041,106.0,108.0,103.0,13.3,1505.3,325.2,-0.7,1.8,2470.371,13.33,0.012,215.0
2020-04-28T01:40:03,42.805,6.029,-0.006,0.005,-0.024,106.0,108.0,103.0,13.4,1505.3,324.5,-0.7,1.9,2470.361,13.33,0.007,309.8
2020-04-28T01:43:03,42.805,6.029,0.017,-0.012,0.001,106.0,110.0,103.0,13.3,1505.3,326.4,-0.7,1.9,2470.43,13.33,0.02,125.2
2020-04-28T01:46:03,42.805,6.029,-0.008,-0.011,-0.026,104.0,109.0,103.0,13.3,1505.3,323.5,-0.7,1.9,2470.374,13.33,0.013,216.0
2020-04-28T01:49:03,42.805,6.029,0.004,-0.015,-0.035,106.0,109.0,102.0,13.4,1505.3,324.3,-0.7,1.8,2470.39,13.33,0.015,165.1
2020-04-28T01:52:03,42.805,6.029,0.0,-0.005,-0.012,107.0,109.0,104.0,13.4,1505.3,324.5,-0.7,1.8,2470.389,13.33,0.005,180.0
2020-04-28T01:55:03,42.805,6.029,0.02,0.001,0.018,107.0,108.0,104.0,13.4,1505.3,323.7,-0.7,1.8,2470.375,13.33,0.02,87.1
2020-04-28T01:58:03,42.805,6.029,0.021,0.003,0.016,107.0,108.0,103.0,13.4,1505.3,327.1,-0.7,1.8,2470.368,13.33,0.021,81.9
2020-04-28T02:04:03,42.805,6.029,-0.008,-0.001,-0.04,106.0,108.0,104.0,13.4,1505.3,327.8,-0.7,1.9,2470.392,13.31,0.008,262.9
2020-04-28T02:07:03,42.805,6.029,-0.003,0.002,0.0,105.0,109.0,104.0,13.3,1505.3,326.8,-0.7,1.8,2470.399,13.32,0.003,303.7
2020-04-28T02:10:03,42.805,6.029,-0.011,0.0,-0.027,106.0,108.0,103.0,13.4,1505.3,326.4,-0.7,1.8,2470.435,13.32,0.011,270.0
2020-04-28T02:13:03,42.805,6.029,0.01,-0.026,-0.009,106.0,109.0,103.0,13.3,1505.3,326.9,-0.7,1.8,2470.428,13.32,0.027,159.0
2020-04-28T02:16:03,42.805,6.029,0.0,0.007,-0.033,105.0,107.0,103.0,13.4,1505.3,327.2,-0.7,1.8,2470.397,13.32,0.007,0.0
2020-04-28T02:19:03,42.805,6.029,-0.012,-0.002,-0.033,105.0,106.0,103.0,13.4,1505.3,326.9,-0.7,1.8,2470.404,13.33,0.012,260.5
2020-04-28T02:22:03,42.805,6.029,-0.024,-0.008,-0.042,106.0,107.0,104.0,13.4,1505.3,325.7,-0.7,1.9,2470.412,13.33,0.025,251.6
2020-04-28T02:25:03,42.805,6.029,-0.022,-0.004,0.003,106.0,109.0,103.0,13.3,1505.3,323.2,-0.7,1.9,2470.358,13.33,0.022,259.7
2020-04-28T02:28:03,42.805,6.029,-0.01,-0.012,-0.031,106.0,108.0,103.0,13.4,1505.3,325.6,-0.7,1.9,2470.346,13.33,0.015,219.8
2020-04-28T02:31:03,42.805,6.029,0.002,-0.022,-0.02,106.0,108.0,104.0,13.4,1505.3,327.0,-0.7,1.8,2470.37,13.33,0.022,174.8
2020-04-28T02:34:03,42.805,6.029,-0.006,0.013,-0.037,106.0,108.0,102.0,13.4,1505.3,326.3,-0.7,1.8,2470.354,13.33,0.014,335.2
2020-04-28T02:37:03,42.805,6.029,-0.002,-0.012,-0.027,106.0,109.0,102.0,13.4,1505.3,325.4,-0.7,1.8,2470.379,13.33,0.012,189.5
2020-04-28T02:40:03,42.805,6.029,0.04,-0.023,-0.018,107.0,109.0,104.0,13.3,1505.3,325.0,-0.7,1.9,2470.357,13.33,0.046,119.9
2020-04-28T02:43:03,42.805,6.029,0.021,-0.01,0.011,106.0,109.0,102.0,13.3,1505.3,324.5,-0.7,1.8,2470.402,13.33,0.023,115.5
2020-04-28T02:46:03,42.805,6.029,0.017,-0.012,-0.011,105.0,107.0,103.0,13.4,1505.3,324.8,-0.7,1.8,2470.307,13.33,0.02,125.2
2020-04-28T02:49:03,42.805,6.029,0.009,-0.024,-0.03,104.0,106.0,101.0,13.4,1505.3,325.8,-0.7,1.8,2470.325,13.33,0.025,159.4
2020-04-28T02:52:03,42.805,6.029,0.026,-0.013,-0.006,105.0,107.0,101.0,13.4,1505.3,326.7,-0.7,1.8,2470.347,13.33,0.029,116.6
2020-04-28T02:55:03,42.805,6.029,0.016,-0.005,-0.006,106.0,107.0,102.0,13.4,1505.3,325.5,-0.7,1.8,2470.334,13.33,0.016,107.4
2020-04-28T02:58:03,42.805,6.029,0.023,0.0,0.037,106.0,107.0,103.0,13.3,1505.3,328.8,-0.7,1.8,2470.367,13.33,0.023,90.0
2020-04-28T03:04:03,42.805,6.029,0.028,0.005,0.034,106.0,108.0,103.0,13.4,1505.3,324.0,-0.8,1.8,2470.367,13.31,0.028,79.9
2020-04-28T03:07:03,42.805,6.029,0.032,-0.008,0.016,107.0,107.0,102.0,13.4,1505.3,323.5,-0.7,1.8,2470.4,13.32,0.032,104.0
2020-04-28T03:10:03,42.805,6.029,0.031,-0.024,0.001,104.0,109.0,102.0,13.4,1505.3,324.5,-0.7,1.8,2470.389,13.32,0.039,127.7
2020-04-28T03:13:03,42.805,6.029,0.034,-0.005,0.004,106.0,106.0,102.0,13.4,1505.3,325.0,-0.7,1.8,2470.378,13.32,0.034,98.4
2020-04-28T03:16:03,42.805,6.029,0.015,-0.007,-0.023,105.0,107.0,103.0,13.3,1505.3,325.2,-0.7,1.8,2470.364,13.33,0.016,115.0
2020-04-28T03:19:03,42.805,6.029,-0.008,-0.013,-0.018,106.0,108.0,102.0,13.3,1505.3,326.1,-0.7,1.8,2470.349,13.33,0.015,211.6
2020-04-28T03:22:03,42.805,6.029,0.015,-0.01,-0.012,104.0,107.0,102.0,13.3,1505.3,325.0,-0.7,1.9,2470.326,13.33,0.018,123.7
2020-04-28T03:25:02,42.805,6.029,0.004,0.0,0.006,105.0,108.0,100.0,13.3,1505.3,324.3,-0.7,1.8,2470.35,13.33,0.004,90.0
2020-04-28T03:28:03,42.805,6.029,0.004,-0.01,-0.048,105.0,107.0,102.0,13.4,1505.3,326.5,-0.7,1.8,2470.308,13.33,0.01,158.2
2020-04-28T03:31:03,42.805,6.029,0.019,0.0,0.002,106.0,107.0,101.0,13.4,1505.3,325.2,-0.7,1.8,2470.302,13.33,0.019,90.0
2020-04-28T03:34:03,42.805,6.029,0.032,0.007,-0.007,104.0,106.0,101.0,13.4,1505.3,325.3,-0.7,1.8,2470.32,13.33,0.032,77.7
2020-04-28T03:37:02,42.805,6.029,0.046,0.005,0.025,103.0,107.0,103.0,13.4,1505.3,325.3,-0.7,1.8,2470.356,13.33,0.046,83.8
2020-04-28T03:40:03,42.805,6.029,0.013,-0.002,0.011,105.0,106.0,102.0,13.4,1505.3,326.3,-0.7,1.8,2470.338,13.33,0.013,98.7
2020-04-28T03:43:03,42.805,6.029,0.05,0.011,0.022,103.0,106.0,102.0,13.4,1505.3,324.8,-0.7,1.8,2470.355,13.33,0.051,77.6
2020-04-28T03:46:03,42.805,6.029,0.02,-0.014,-0.011,107.0,109.0,103.0,13.4,1505.3,325.4,-0.7,1.8,2470.356,13.33,0.024,125.0
2020-04-28T03:49:03,42.805,6.029,0.011,0.004,0.007,107.0,106.0,102.0,13.3,1505.3,324.0,-0.7,1.8,2470.318,13.33,0.011,70.0
2020-04-28T03:52:02,42.805,6.029,0.023,0.02,0.002,104.0,107.0,102.0,13.3,1505.3,325.4,-0.7,1.8,2470.313,13.33,0.03,49.0
2020-04-28T03:55:03,42.805,6.029,0.021,-0.011,0.025,104.0,106.0,103.0,13.3,1505.3,328.6,-0.7,1.8,2470.313,13.33,0.023,117.6
2020-04-28T03:58:02,42.805,6.029,0.024,0.0,0.006,107.0,106.0,102.0,13.4,1505.3,323.3,-0.7,1.8,2470.317,13.33,0.024,90.0
2020-04-28T04:04:03,42.805,6.029,0.018,-0.004,-0.011,103.0,107.0,102.0,13.4,1505.3,324.4,-0.7,1.8,2470.362,13.31,0.018,102.5
2020-04-28T04:07:03,42.805,6.029,0.001,-0.012,-0.04,105.0,108.0,101.0,13.4,1505.3,324.2,-0.7,1.8,2470.386,13.32,0.012,175.2
2020-04-28T04:10:03,42.805,6.029,0.014,-0.017,-0.025,105.0,108.0,101.0,13.3,1505.3,326.0,-0.7,1.8,2470.345,13.32,0.022,140.5
2020-04-28T04:13:02,42.805,6.029,0.01,0.001,-0.018,105.0,107.0,104.0,13.4,1505.3,328.1,-0.7,1.8,2470.346,13.33,0.01,84.3
2020-04-28T04:16:03,42.805,6.029,0.018,-0.019,-0.016,105.0,108.0,103.0,13.4,1505.3,323.7,-0.7,1.8,2470.299,13.33,0.026,136.5
2020-04-28T04:19:03,42.805,6.029,0.03,-0.004,0.019,108.0,108.0,102.0,13.3,1505.3,324.8,-0.7,1.9,2470.329,13.33,0.03,97.6
2020-04-28T04:22:03,42.805,6.029,-0.012,-0.006,-0.008,104.0,107.0,102.0,13.4,1505.3,324.6,-0.7,1.8,2470.331,13.33,0.013,243.4
2020-04-28T04:25:03,42.805,6.029,0.024,0.0,-0.009,105.0,109.0,103.0,13.4,1505.3,325.9,-0.7,1.8,2470.319,13.33,0.024,90.0
2020-04-28T04:28:02,42.805,6.029,0.027,-0.017,-0.003,103.0,108.0,102.0,13.3,1505.3,326.0,-0.7,1.9,2470.343,13.33,0.031,122.2
2020-04-28T04:31:03,42.805,6.029,-0.012,-0.006,-0.019,104.0,107.0,102.0,13.4,1505.3,328.6,-0.7,1.9,2470.348,13.33,0.013,243.4
2020-04-28T04:34:02,42.805,6.029,0.03,0.006,-0.007,105.0,108.0,102.0,13.4,1505.3,323.6,-0.7,1.8,2470.343,13.33,0.03,78.7
2020-04-28T04:37:02,42.805,6.029,0.023,0.008,0.0,103.0,107.0,102.0,13.4,1505.3,323.1,-0.7,1.8,2470.315,13.33,0.024,70.8
2020-04-28T04:40:02,42.805,6.029,0.007,-0.002,-0.032,105.0,108.0,101.0,13.4,1505.3,325.0,-0.7,1.8,2470.316,13.33,0.007,105.9
2020-04-28T04:43:02,42.805,6.029,-0.009,-0.001,-0.005,105.0,108.0,101.0,13.4,1505.3,324.0,-0.7,1.9,2470.299,13.33,0.009,263.7
2020-04-28T04:46:02,42.805,6.029,-0.004,-0.015,-0.046,105.0,107.0,101.0,13.4,1505.3,326.5,-0.7,1.8,2470.312,13.33,0.015,194.9
2020-04-28T04:49:02,42.805,6.029,0.024,0.0,0.006,105.0,108.0,102.0,13.3,1505.3,324.0,-0.7,1.8,2470.334,13.33,0.024,90.0
2020-04-28T04:52:03,42.805,6.029,0.005,-0.008,-0.068,104.0,109.0,102.0,13.4,1505.3,324.0,-0.7,1.8,2470.339,13.33,0.009,148.0
2020-04-28T04:55:02,42.805,6.029,0.02,-0.014,-0.025,103.0,110.0,102.0,13.4,1505.3,324.6,-0.7,1.8,2470.333,13.33,0.024,125.0
2020-04-28T04:58:02,42.805,6.029,0.008,0.0,-0.011,106.0,111.0,101.0,13.4,1505.3,326.1,-0.7,1.8,2470.33,13.33,0.008,90.0
2020-04-28T05:04:03,42.805,6.029,-0.001,-0.014,-0.041,105.0,110.0,102.0,13.4,1505.3,325.1,-0.8,1.8,2470.344,13.31,0.014,184.1
2020-04-28T05:07:02,42.805,6.029,0.012,-0.006,-0.007,104.0,111.0,102.0,13.4,1505.3,326.3,-0.7,1.8,2470.32,13.32,0.013,116.6
2020-04-28T05:10:02,42.805,6.029,0.031,-0.01,-0.012,105.0,110.0,101.0,13.4,1505.3,326.5,-0.7,1.8,2470.333,13.32,0.032,107.9
2020-04-28T05:13:02,42.805,6.029,0.023,-0.028,-0.003,104.0,110.0,101.0,13.4,1505.3,328.2,-0.7,1.8,2470.372,13.32,0.036,140.6
2020-04-28T05:16:02,42.805,6.029,0.004,0.0,-0.054,104.0,110.0,101.0,13.4,1505.3,325.3,-0.7,1.8,2470.394,13.33,0.004,90.0
2020-04-28T05:19:02,42.805,6.029,-0.006,-0.003,-0.04,106.0,111.0,103.0,13.4,1505.3,327.2,-0.7,1.8,2470.31,13.33,0.006,243.4
2020-04-28T05:22:02,42.805,6.029,0.016,-0.008,-0.029,106.0,109.0,102.0,13.4,1505.3,322.9,-0.7,1.8,2470.327,13.33,0.017,116.6
2020-04-28T05:25:02,42.805,6.029,0.008,0.001,-0.041,104.0,112.0,103.0,13.3,1505.3,328.4,-0.7,1.8,2470.331,13.33,0.008,82.9
2020-04-28T05:28:02,42.805,6.029,0.014,0.002,-0.003,105.0,110.0,102.0,13.4,1505.3,325.2,-0.7,1.8,2470.309,13.33,0.014,81.9
2020-04-28T05:31:02,42.805,6.029,0.01,-0.025,-0.032,105.0,112.0,102.0,13.4,1505.3,326.8,-0.7,1.8,2470.346,13.33,0.026,158.2
2020-04-28T05:34:02,42.805,6.029,-0.016,0.002,-0.046,103.0,111.0,100.0,13.3,1505.3,325.2,-0.7,1.8,2470.359,13.33,0.016,277.1
2020-04-28T05:37:02,42.805,6.029,0.024,-0.015,-0.039,105.0,111.0,101.0,13.3,1505.3,328.0,-0.7,1.8,2470.3,13.33,0.028,122.0
2020-04-28T05:40:02,42.805,6.029,0.006,0.001,-0.047,104.0,109.0,101.0,13.4,1505.3,325.9,-0.7,1.8,2470.332,13.33,0.006,80.5
2020-04-28T05:43:02,42.805,6.029,0.012,0.004,-0.015,104.0,109.0,101.0,13.4,1505.3,323.7,-0.7,1.8,2470.349,13.33,0.012,71.6
2020-04-28T05:46:02,42.805,6.029,0.007,-0.001,-0.055,107.0,108.0,102.0,13.3,1505.3,326.5,-0.7,1.8,2470.309,13.33,0.007,98.1
2020-04-28T05:49:02,42.805,6.029,0.051,-0.016,0.018,105.0,109.0,101.0,13.4,1505.3,325.5,-0.7,1.9,2470.307,13.33,0.053,107.4
2020-04-28T05:52:02,42.805,6.029,0.024,-0.013,-0.037,104.0,107.0,102.0,13.4,1505.3,328.0,-0.7,1.8,2470.349,13.33,0.027,118.4
2020-04-28T05:55:02,42.805,6.029,0.022,-0.007,0.003,105.0,108.0,102.0,13.4,1505.3,328.4,-0.7,1.8,2470.31,13.33,0.023,107.6
2020-04-28T05:58:02,42.805,6.029,0.017,-0.016,-0.001,105.0,109.0,101.0,13.4,1505.3,327.9,-0.7,1.8,2470.296,13.33,0.023,133.3
2020-04-28T06:04:02,42.805,6.029,0.011,-0.023,-0.032,105.0,109.0,102.0,13.4,1505.3,324.7,-0.7,1.8,2470.364,13.31,0.025,154.4
2020-04-28T06:07:02,42.805,6.029,0.021,-0.008,-0.013,105.0,109.0,102.0,13.3,1505.3,325.4,-0.7,1.8,2470.334,13.31,0.022,110.9
2020-04-28T06:10:02,42.805,6.029,0.031,0.002,-0.006,105.0,108.0,102.0,13.4,1505.3,326.5,-0.7,1.8,2470.342,13.32,0.031,86.3
2020-04-28T06:13:02,42.805,6.029,0.041,-0.014,-0.042,103.0,108.0,101.0,13.4,1505.3,323.4,-0.7,1.9,2470.336,13.32,0.043,108.9
2020-04-28T06:16:02,42.805,6.029,0.019,-0.003,-0.029,104.0,109.0,102.0,13.3,1505.3,326.4,-0.7,1.8,2470.347,13.32,0.019,99.0
2020-04-28T06:19:02,42.805,6.029,0.007,-0.003,-0.021,105.0,108.0,102.0,13.4,1505.3,326.2,-0.7,1.8,2470.326,13.33,0.007,113.2
2020-04-28T06:22:02,42.805,6.029,-0.007,-0.013,-0.059,104.0,109.0,101.0,13.4,1505.3,324.9,-0.7,1.8,2470.363,13.33,0.014,208.3
2020-04-28T06:25:02,42.805,6.029,0.004,-0.013,-0.051,106.0,108.0,101.0,13.3,1505.3,327.2,-0.7,1.8,2470.348,13.33,0.013,162.9
2020-04-28T06:28:02,42.805,6.029,-0.008,-0.002,-0.045,105.0,109.0,102.0,13.4,1505.3,323.0,-0.7,1.8,2470.315,13.33,0.008,256.0
2020-04-28T06:31:02,42.805,6.029,-0.014,-0.023,-0.057,104.0,108.0,102.0,13.4,1505.3,325.7,-0.7,1.8,2470.323,13.33,0.026,211.3
2020-04-28T06:34:02,42.805,6.029,0.032,-0.015,-0.048,105.0,108.0,102.0,13.4,1505.3,324.8,-0.7,1.8,2470.293,13.33,0.035,115.1
2020-04-28T06:37:02,42.805,6.029,0.018,-0.011,-0.024,105.0,110.0,101.0,13.4,1505.3,325.0,-0.7,1.9,2470.352,13.33,0.021,121.4
2020-04-28T06:40:02,42.805,6.029,0.0,-0.021,-0.06,106.0,108.0,100.0,13.4,1505.3,328.4,-0.7,1.8,2470.349,13.33,0.021,180.0
2020-04-28T06:43:02,42.805,6.029,0.01,-0.001,-0.019,105.0,108.0,102.0,13.4,1505.3,326.4,-0.7,1.8,2470.311,13.33,0.01,95.7
2020-04-28T06:46:02,42.805,6.029,0.01,-0.018,-0.04,105.0,112.0,102.0,13.4,1505.3,325.8,-0.7,1.8,2470.371,13.33,0.02,150.9
2020-04-28T06:49:02,42.805,6.029,0.034,-0.009,0.008,104.0,107.0,103.0,13.4,1505.3,327.1,-0.7,1.8,2470.323,13.33,0.035,104.8
2020-04-28T06:52:02,42.805,6.029,0.036,-0.01,0.003,104.0,107.0,101.0,13.4,1505.3,326.9,-0.7,1.8,2470.307,13.33,0.037,105.5
2020-04-28T06:55:02,42.805,6.029,0.016,-0.022,-0.018,103.0,109.0,102.0,13.4,1505.3,325.4,-0.7,1.8,2470.293,13.33,0.027,144.0
2020-04-28T06:58:02,42.805,6.029,0.028,0.009,-0.025,103.0,109.0,102.0,13.4,1505.3,323.2,-0.7,1.8,2470.327,13.33,0.029,72.2
2020-04-28T07:04:02,42.805,6.029,0.041,-0.006,0.013,104.0,110.0,102.0,13.3,1505.3,323.2,-0.7,1.8,2470.358,13.31,0.041,98.3
2020-04-28T07:07:02,42.805,6.029,0.039,-0.011,0.012,104.0,109.0,102.0,13.4,1505.3,325.4,-0.7,1.8,2470.381,13.31,0.04,105.7
2020-04-28T07:10:02,42.805,6.029,-0.005,-0.009,-0.026,105.0,109.0,101.0,13.3,1505.3,327.8,-0.8,1.8,2470.355,13.32,0.01,209.1
2020-04-28T07:13:02,42.805,6.029,0.018,-0.007,-0.022,104.0,108.0,101.0,13.3,1505.3,323.7,-0.7,1.8,2470.335,13.32,0.019,111.2
2020-04-28T07:16:02,42.805,6.029,0.0,0.007,-0.034,104.0,108.0,102.0,13.3,1505.3,323.8,-0.7,1.9,2470.345,13.32,0.007,0.0
2020-04-28T07:19:02,42.805,6.029,0.017,0.006,-0.016,103.0,108.0,101.0,13.3,1505.3,325.1,-0.7,1.8,2470.343,13.32,0.018,70.6
2020-04-28T07:22:02,42.805,6.029,0.042,-0.018,-0.042,104.0,109.0,101.0,13.4,1505.3,327.4,-0.7,1.8,2470.345,13.33,0.045,113.2
2020-04-28T07:25:02,42.805,6.029,0.052,-0.011,-0.027,105.0,108.0,102.0,13.3,1505.3,328.5,-0.7,1.8,2470.387,13.33,0.053,101.9
2020-04-28T07:28:02,42.805,6.029,0.039,0.009,-0.021,104.0,109.0,101.0,13.4,1505.3,326.2,-0.7,1.8,2470.326,13.33,0.04,77.0
2020-04-28T07:31:02,42.805,6.029,0.031,-0.009,-0.013,103.0,108.0,102.0,13.3,1505.3,326.7,-0.7,1.8,2470.371,13.33,0.032,106.2
2020-04-28T07:34:02,42.805,6.029,0.012,0.014,-0.034,105.0,108.0,102.0,13.4,1505.3,325.6,-0.7,1.8,2470.348,13.33,0.018,40.6
2020-04-28T07:37:02,42.805,6.029,0.03,-0.023,-0.028,104.0,108.0,102.0,13.4,1505.3,327.4,-0.7,1.8,2470.343,13.33,0.037,127.5
2020-04-28T07:40:02,42.805,6.029,0.038,-0.022,0.024,104.0,110.0,102.0,13.3,1505.3,322.8,-0.7,1.8,2470.353,13.33,0.043,120.1
2020-04-28T07:43:03,42.805,6.029,0.043,-0.033,-0.011,104.0,110.0,101.0,13.4,1505.3,325.5,-0.7,1.9,2470.364,13.33,0.054,127.5
2020-04-28T07:46:03,42.805,6.029,0.027,0.015,-0.029,104.0,108.0,102.0,13.3,1505.3,324.7,-0.7,1.8,2470.354,13.33,0.03,60.9
2020-04-28T07:49:02,42.805,6.029,0.011,-0.002,-0.024,105.0,108.0,103.0,13.3,1505.3,327.9,-0.7,1.9,2470.358,13.33,0.011,100.3
2020-04-28T07:52:02,42.805,6.029,0.018,-0.02,-0.021,106.0,106.0,103.0,13.4,1505.3,327.5,-0.7,1.8,2470.374,13.33,0.026,138.0
2020-04-28T07:55:02,42.805,6.029,0.019,-0.007,-0.016,103.0,108.0,101.0,13.4,1505.3,328.1,-0.7,1.8,2470.388,13.33,0.02,110.2
2020-04-28T07:58:02,42.805,6.029,0.0,0.006,-0.021,106.0,108.0,101.0,13.4,1505.3,327.9,-0.7,1.9,2470.371,13.33,0.006,0.0
2020-04-28T08:04:02,42.805,6.029,0.061,-0.023,-0.032,104.0,107.0,102.0,13.4,1505.3,324.9,-0.7,1.8,2470.433,13.31,0.065,110.7
2020-04-28T08:07:02,42.805,6.029,0.036,-0.015,-0.029,103.0,107.0,101.0,13.3,1505.3,324.1,-0.7,1.8,2470.418,13.31,0.039,112.6
2020-04-28T08:10:02,42.805,6.029,0.023,-0.014,-0.001,105.0,105.0,102.0,13.3,1505.3,326.7,-0.7,1.8,2470.407,13.32,0.026,121.3
2020-04-28T08:13:02,42.805,6.029,0.044,-0.012,-0.014,106.0,108.0,101.0,13.3,1505.3,324.6,-0.7,1.8,2470.418,13.32,0.045,105.3
2020-04-28T08:16:03,42.805,6.029,0.028,0.001,-0.007,106.0,108.0,102.0,13.4,1505.3,324.8,-0.7,1.8,2470.381,13.32,0.028,88.0
2020-04-28T08:19:02,42.805,6.029,0.016,0.0,-0.042,107.0,106.0,102.0,13.3,1505.3,328.3,-0.7,1.8,2470.431,13.32,0.016,90.0
2020-04-28T08:22:02,42.805,6.029,0.024,-0.015,-0.014,107.0,108.0,101.0,13.4,1505.3,323.9,-0.7,1.8,2470.414,13.32,0.028,122.0
2020-04-28T08:25:02,42.805,6.029,0.041,-0.021,-0.01,105.0,106.0,101.0,13.4,1505.3,325.5,-0.7,1.8,2470.372,13.32,0.046,117.1
2020-04-28T08:28:02,42.805,6.029,0.011,-0.01,-0.003,106.0,106.0,101.0,13.3,1505.3,324.8,-0.7,1.8,2470.377,13.32,0.014,132.3
2020-04-28T08:31:02,42.805,6.029,0.02,-0.033,-0.044,106.0,106.0,102.0,13.3,1505.3,325.9,-0.7,1.8,2470.387,13.32,0.038,148.8
2020-04-28T08:34:02,42.805,6.029,0.016,-0.018,-0.022,107.0,108.0,102.0,13.3,1505.3,324.5,-0.7,1.8,2470.407,13.32,0.024,138.4
2020-04-28T08:37:02,42.805,6.029,0.037,-0.039,-0.053,105.0,106.0,102.0,13.3,1505.3,326.7,-0.7,1.8,2470.384,13.32,0.053,136.5
2020-04-28T08:40:03,42.805,6.029,0.038,-0.017,-0.04,104.0,107.0,102.0,13.3,1505.3,325.8,-0.7,1.8,2470.385,13.32,0.041,114.1
2020-04-28T08:43:02,42.805,6.029,0.021,-0.027,-0.038,106.0,106.0,103.0,13.4,1505.3,324.7,-0.7,1.8,2470.391,13.32,0.034,142.1
2020-04-28T08:46:02,42.805,6.029,0.02,-0.022,-0.028,105.0,107.0,102.0,13.4,1505.3,323.8,-0.7,1.8,2470.383,13.32,0.029,137.7
2020-04-28T08:49:02,42.805,6.029,0.021,-0.015,-0.002,105.0,108.0,102.0,13.3,1505.3,327.9,-0.7,1.8,2470.389,13.32,0.025,125.5
2020-04-28T08:52:02,42.805,6.029,0.031,-0.02,-0.012,106.0,108.0,101.0,13.4,1505.3,325.2,-0.7,1.8,2470.38,13.32,0.036,122.8
2020-04-28T08:55:02,42.805,6.029,0.015,-0.016,-0.014,106.0,106.0,103.0,13.3,1505.3,326.0,-0.7,1.8,2470.4,13.32,0.021,136.9
2020-04-28T08:58:02,42.805,6.029,0.029,-0.009,-0.05,106.0,107.0,102.0,13.4,1505.3,324.5,-0.7,1.8,2470.38,13.32,0.03,107.2
2020-04-28T09:04:02,42.805,6.029,0.018,-0.016,-0.008,106.0,107.0,102.0,13.4,1505.2,328.0,-0.7,1.8,2470.445,13.3,0.024,131.6
2020-04-28T09:07:02,42.805,6.029,0.026,-0.005,-0.025,105.0,107.0,102.0,13.3,1505.3,325.3,-0.7,1.8,2470.363,13.31,0.026,100.9
2020-04-28T09:10:02,42.805,6.029,0.028,-0.005,-0.037,105.0,106.0,102.0,13.4,1505.3,325.8,-0.7,1.8,2470.403,13.32,0.028,100.1
2020-04-28T09:13:02,42.805,6.029,0.026,-0.001,-0.012,106.0,107.0,102.0,13.3,1505.3,328.1,-0.7,1.9,2470.402,13.32,0.026,92.2
2020-04-28T09:16:03,42.805,6.029,0.01,-0.001,-0.016,104.0,108.0,103.0,13.4,1505.3,325.9,-0.7,1.8,2470.369,13.32,0.01,95.7
2020-04-28T09:19:02,42.805,6.029,0.031,-0.017,-0.027,104.0,107.0,103.0,13.4,1505.3,323.8,-0.7,1.8,2470.436,13.32,0.035,118.7
2020-04-28T09:22:02,42.805,6.029,0.015,-0.001,-0.038,107.0,107.0,101.0,13.3,1505.3,325.6,-0.7,1.8,2470.437,13.32,0.015,93.8
2020-04-28T09:25:02,42.805,6.029,0.044,-0.011,-0.014,105.0,108.0,101.0,13.4,1505.3,322.8,-0.7,1.8,2470.451,13.32,0.045,104.0
2020-04-28T09:28:03,42.805,6.029,0.019,-0.029,-0.063,105.0,107.0,103.0,13.3,1505.3,325.5,-0.7,1.8,2470.409,13.32,0.034,146.8
2020-04-28T09:31:02,42.805,6.029,0.027,-0.013,-0.009,105.0,107.0,102.0,13.4,1505.3,327.9,-0.7,1.9,2470.467,13.32,0.029,115.7
2020-04-28T09:34:02,42.805,6.029,0.047,-0.007,-0.012,107.0,107.0,103.0,13.4,1505.3,325.4,-0.7,1.8,2470.412,13.32,0.047,98.5
2020-04-28T09:37:02,42.805,6.029,0.033,-0.024,-0.018,105.0,107.0,102.0,13.4,1505.3,326.4,-0.7,1.8,2470.388,13.32,0.04,126.0
2020-04-28T09:40:03,42.805,6.029,0.028,-0.029,-0.015,104.0,107.0,102.0,13.4,1505.3,323.3,-0.7,1.8,2470.444,13.32,0.04,136.0
2020-04-28T09:46:02,42.805,6.029,0.031,-0.015,-0.04,107.0,107.0,102.0,13.4,1505.2,323.1,-0.8,1.8,2470.428,13.3,0.034,115.8
2020-04-28T09:49:02,42.805,6.029,0.048,-0.012,-0.025,106.0,106.0,103.0,13.3,1505.3,326.8,-0.7,1.8,2470.443,13.31,0.049,104.0
2020-04-28T09:52:02,42.805,6.029,0.043,-0.014,0.013,106.0,106.0,102.0,13.3,1505.3,326.0,-0.7,1.8,2470.413,13.32,0.045,108.0
2020-04-28T09:55:03,42.805,6.029,0.031,-0.013,-0.019,104.0,108.0,103.0,13.4,1505.3,325.3,-0.7,1.8,2470.453,13.32,0.033,112.7
2020-04-28T09:58:02,42.805,6.029,0.017,-0.01,-0.008,106.0,108.0,103.0,13.4,1505.3,324.7,-0.7,1.9,2470.412,13.32,0.019,120.5
2020-04-28T10:04:02,42.805,6.029,0.027,-0.03,-0.04,107.0,108.0,102.0,13.4,1505.2,327.0,-0.8,1.9,2470.433,13.3,0.04,138.0